Location: ???????
(55.4362°N, 38.1183°E)
Time: 09:07:53
(UTC+00:00)

Oscar 11 - Pass Details

Date: 09 December 2021
Orbit: 611 x 625 km, 97.6° (Epoch: 25 January)

Event Time Altitude Azimuth Distance (km) Brightness Sun altitude
Rises 14:05:22 0° 175° (S) 2,901 10.8 -8.8°
Reaches altitude 10° 14:07:35 10° 180° (S) 1,999 10.1 -9.1°
Maximum altitude 14:11:53 57° 259° (W) 740 7.8 -9.6°
Drops below altitude 10° 14:16:12 10° 339° (NNW) 2,014 9.6 -10.2°
Sets 14:18:27 0° 344° (NNW) 2,925 10.4 -10.4°
